TimeCDT,TemperatureF,Dew PointF,Humidity,Sea Level PressureIn,VisibilityMPH,Wind Direction,Wind SpeedMPH,Gust SpeedMPH,PrecipitationIn,Events,Conditions,WindDirDegrees,DateUTC
12:53 AM,64.9,51.1,61,29.85,-9999.0,SSE,8.1,-,N/A,,Clear,150,2012-10-16 05:53:00
1:53 AM,64.0,52.0,65,29.83,-9999.0,SE,4.6,-,N/A,,Clear,140,2012-10-16 06:53:00
2:53 AM,64.0,52.0,65,29.82,-9999.0,SSE,6.9,-,N/A,,Clear,160,2012-10-16 07:53:00
3:53 AM,63.0,53.1,70,29.81,-9999.0,South,4.6,-,N/A,,Clear,170,2012-10-16 08:53:00
4:53 AM,63.0,53.1,70,29.78,-9999.0,SSE,5.8,-,N/A,,Clear,150,2012-10-16 09:53:00
5:53 AM,64.9,53.1,65,29.78,-9999.0,SW,6.9,-,N/A,,Clear,220,2012-10-16 10:53:00
6:53 AM,66.2,51.8,60,29.89,-9999.0,WSW,8.1,-,N/A,,Clear,250,2012-10-16 11:53:00
7:53 AM,64.9,53.1,65,29.78,-9999.0,SSW,5.8,-,N/A,,Clear,210,2012-10-16 12:53:00
8:53 AM,63.0,54.0,72,29.79,10.0,SE,3.5,-,N/A,,Clear,130,2012-10-16 13:53:00
9:53 AM,68.0,55.0,63,29.81,10.0,SSE,3.5,-,N/A,,Clear,160,2012-10-16 14:53:00
10:53 AM,73.9,55.0,52,29.79,10.0,SW,9.2,-,N/A,,Clear,230,2012-10-16 15:53:00
11:53 AM,78.1,55.0,45,29.78,10.0,WSW,11.5,-,N/A,,Clear,240,2012-10-16 16:53:00
12:53 PM,81.0,53.1,38,29.75,10.0,West,12.7,19.6,N/A,,Clear,270,2012-10-16 17:53:00
1:53 PM,82.9,51.1,33,29.71,10.0,SW,9.2,-,N/A,,Clear,220,2012-10-16 18:53:00
2:53 PM,84.0,50.0,31,29.68,10.0,SW,12.7,-,N/A,,Clear,220,2012-10-16 19:53:00
3:53 PM,84.9,46.9,27,29.65,10.0,WSW,11.5,19.6,N/A,,Clear,240,2012-10-16 20:53:00
4:53 PM,86.0,44.1,23,29.64,10.0,SW,17.3,20.7,N/A,,Clear,220,2012-10-16 21:53:00
5:53 PM,82.9,45.0,26,29.62,10.0,SW,11.5,-,N/A,,Clear,220,2012-10-16 22:53:00
6:53 PM,81.0,42.1,25,29.61,10.0,SW,9.2,-,N/A,,Clear,220,2012-10-16 23:53:00
7:53 PM,73.9,44.1,34,29.63,10.0,SSW,6.9,-,N/A,,Clear,210,2012-10-17 00:53:00
8:53 PM,72.0,45.0,38,29.65,10.0,SSW,9.2,-,N/A,,Clear,210,2012-10-17 01:53:00
9:53 PM,75.0,44.1,33,29.64,10.0,SW,12.7,-,N/A,,Clear,230,2012-10-17 02:53:00
10:53 PM,72.0,46.0,40,29.64,10.0,SW,8.1,-,N/A,,Clear,230,2012-10-17 03:53:00
11:53 PM,64.9,46.0,50,29.64,10.0,Calm,Calm,-,N/A,,Clear,0,2012-10-17 04:53:00